Location: The Saddle
(36.8333°N, 80.3417°W)
Time: 16:13:03
(UTC-05:00)

Tiros 1 - All Passes

Search period start: 30 January 2023 00:00
Search period end: 09 February 2023 00:00
Orbit: 628 x 662 km, 48.4° (Epoch: 30 January)

Date Brightness Start Highest point End Pass type
(mag) Time Alt. Az. Time Alt. Az. Time Alt. Az.
30 Jan - 00:26:53 10° S 00:30:11 20° SE 00:33:30 10° E night (unlit)
30 Jan - 02:07:19 10° WSW 02:11:55 73° NNW 02:16:35 10° NE night (unlit)
30 Jan - 03:50:52 10° WNW 03:54:40 24° NNW 03:58:30 10° NE visible
30 Jan - 05:34:32 10° NW 05:38:02 20° N 05:41:34 10° NE visible
30 Jan - 07:16:40 10° NW 07:21:08 41° NNE 07:25:38 10° E daylight
30 Jan - 08:58:50 10° WNW 09:03:19 43° SW 09:07:50 10° SSE daylight
31 Jan - 00:50:54 10° SSW 00:55:18 46° SE 00:59:44 10° ENE night (unlit)
31 Jan - 02:33:11 10° W 02:37:30 38° NNW 02:41:53 10° NE night (unlit)
31 Jan - 04:17:11 10° NW 04:20:38 20° N 04:24:06 10° NE visible
31 Jan - 06:00:05 10° NW 06:03:59 25° NNE 06:07:56 10° ENE visible
31 Jan - 07:41:57 10° NW 07:46:41 78° NNE 07:51:28 10° ESE daylight
31 Jan - 09:25:08 10° W 09:28:26 19° SW 09:31:46 10° S daylight
31 Jan - 23:35:56 10° S 23:38:56 17° SE 23:41:58 10° E night (unlit)
01 Feb - 01:16:00 10° WSW 01:20:37 80° NW 01:25:17 10° NE night (unlit)
01 Feb - 02:59:27 10° WNW 03:03:18 25° NNW 03:07:11 10° NE night (unlit)
01 Feb - 04:43:12 10° NW 04:46:40 20° N 04:50:07 10° NE visible
01 Feb - 06:25:23 10° NW 06:29:47 38° NNE 06:34:13 10° E visible
01 Feb - 08:07:29 10° WNW 08:12:02 49° SW 08:16:37 10° SSE daylight
01 Feb - 23:59:43 10° SSW 00:04:02 41° SE 00:08:22 10° ENE night (unlit)
02 Feb - 01:41:48 10° W 01:46:10 41° NNW 01:50:36 10° NE night (unlit)
02 Feb - 03:25:47 10° NW 03:29:15 20° N 03:32:44 10° NE visible
02 Feb - 05:08:47 10° NW 05:12:37 24° NNE 05:16:27 10° ENE visible
02 Feb - 06:50:40 10° NW 06:55:22 71° NNE 07:00:07 10° ESE visible
02 Feb - 08:33:38 10° W 08:37:10 21° SW 08:40:44 10° S daylight
02 Feb - 22:45:02 10° SSE 22:47:42 15° SE 22:50:23 10° E night (unlit)
03 Feb - 00:24:42 10° SW 00:29:18 87° NW 00:33:59 10° NE night (unlit)
03 Feb - 02:08:02 10° WNW 02:11:56 26° NNW 02:15:52 10° NE night (unlit)
03 Feb - 03:51:51 10° NW 03:55:16 20° N 03:58:41 10° NE visible
03 Feb - 05:34:07 10° NW 05:38:26 35° NNE 05:42:47 10° E visible
03 Feb - 07:16:09 10° WNW 07:20:44 54° SW 07:25:22 10° SE daylight
03 Feb - 23:08:32 10° SSW 23:12:45 36° SE 23:16:59 10° ENE night (unlit)
04 Feb - 00:50:25 10° W 00:54:50 44° NNW 00:59:17 10° NE night (unlit)
04 Feb - 02:34:23 10° WNW 02:37:52 20° N 02:41:22 10° NE night (unlit)
04 Feb - 04:17:30 10° NW 04:21:14 23° NNE 04:25:00 10° ENE visible
04 Feb - 05:59:23 10° NW 06:04:03 64° NNE 06:08:44 10° ESE visible
04 Feb - 07:42:10 10° W 07:45:54 23° SW 07:49:39 10° S daylight
04 Feb - 21:54:13 10° SSE 21:56:27 13° SE 21:58:41 10° E night (unlit)
04 Feb - 23:33:24 10° SW 23:38:00 84° SSE 23:42:39 10° NE night (unlit)
05 Feb - 01:16:36 10° WNW 01:20:34 27° NNW 01:24:34 10° NE night (unlit)
05 Feb - 03:00:30 10° NW 03:03:51 19° N 03:07:15 10° NE night (unlit)
05 Feb - 04:42:49 10° NW 04:47:04 33° NNE 04:51:20 10° E visible
05 Feb - 06:24:48 10° WNW 06:29:26 61° SW 06:34:06 10° SE visible
05 Feb - 22:17:23 10° SSW 22:21:28 32° SE 22:25:35 10° ENE night (unlit)
05 Feb - 23:59:02 10° WSW 00:03:30 48° NNW 00:07:59 10° NE night (unlit)
06 Feb - 01:42:58 10° WNW 01:46:28 21° N 01:50:00 10° NE night (unlit)
06 Feb - 03:26:11 10° NW 03:29:51 22° NNE 03:33:32 10° ENE visible
06 Feb - 05:08:05 10° NW 05:12:42 59° NNE 05:17:22 10° ESE visible
06 Feb - 06:50:43 10° WNW 06:54:37 26° SW 06:58:32 10° S visible
06 Feb - 21:03:32 10° SSE 21:05:12 12° SE 21:06:52 10° ESE night (unlit)
06 Feb - 22:42:07 10° SW 22:46:42 76° SE 22:51:19 10° ENE night (unlit)
07 Feb - 00:25:10 10° W 00:29:12 29° NNW 00:33:15 10° NE night (unlit)
07 Feb - 02:09:07 10° NW 02:12:28 19° N 02:15:50 10° NE night (unlit)
07 Feb - 03:51:32 10° NW 03:55:42 31° NNE 03:59:53 10° E visible
07 Feb - 05:33:28 10° WNW 05:38:07 68° SW 05:42:48 10° SE visible
07 Feb - 07:18:48 10° WSW 07:19:36 10° SW 07:20:25 10° SW daylight
07 Feb - 21:26:14 10° SSW 21:30:12 29° SE 21:34:11 10° ENE night (unlit)
07 Feb - 23:07:39 10° WSW 23:12:09 52° NNW 23:16:41 10° NE night (unlit)
08 Feb - 00:51:32 10° WNW 00:55:05 21° N 00:58:39 10° NE night (unlit)
08 Feb - 02:34:51 10° NW 02:38:27 22° N 02:42:04 10° ENE night (unlit)
08 Feb - 04:16:47 10° NW 04:21:22 54° NNE 04:25:58 10° ESE visible
08 Feb - 05:59:17 10° WNW 06:03:20 29° SW 06:07:23 10° SSE visible
08 Feb - 20:13:21 10° SE 20:13:56 10° SE 20:14:31 10° ESE night (unlit)
08 Feb - 21:50:50 10° SW 21:55:24 69° SE 21:59:59 10° ENE night (unlit)
08 Feb - 23:33:44 10° W 23:37:49 30° NNW 23:41:56 10° NE night (unlit)
